Miscellaneous Local Product
Issued by NWS North Platte, NE

Home | Current Version | Previous Version | Text Only | Print | Product List | Glossary On
Versions: 1 2 3 4 5 6 7 8 9 10 11 12 13 14 15 16 17 18 19 20 21 22 23 24 25 26 27 28 29 30 31 32 33 34 35 36 37 38 39 40 41 42 43 44 45 46 47 48 49 50
000
AXUS43 KLBF 170110
MISLBF


WESTERN AND NORTH CENTRAL NEBRASKA HOURLY WEATHER ROUNDUP
NATIONAL WEATHER SERVICE NORTH PLATTE NE
800 PM CDT WED APR 16 2014

***STATIONS NOT REPORTING VARIABLES SUCH AS SKY/WEATHER OR
PRESSURE ARE PROVIDED BY THE NEBRASKA DEPARTMENT OF
ROADS...RAWS...AND APRS NETWORKS...AND ARE NOT UNDER
NATIONAL WEATHER SERVICE QUALITY CONTROL***

...OBSERVATIONS IN AND NEAR THE EASTERN PANHANDLE OF NEBRASKA...

CITY           SKY/WX    TMP DP  RH WIND       PRES   REMARKS
PINE RIDGE     PTCLDY    39  29  67 NE7       30.06R WCI  34
CHADRON        PTCLDY    42  32  67 NE10      30.04R
ALLIANCE       CLEAR     40  31  70 NE13      30.03R WCI  32
SIDNEY         CLEAR     47  27  45 NE16      30.00R
WHITECLAY        N/A     36  27  70 NE5         N/A  WCI  32
CRESCENT LAKE    N/A     38  29  69 NE13        N/A  WCI  30
LISCO            N/A     46  27  48 N17         N/A
LEWELLEN         N/A     43  27  52 NE7         N/A
$$

...OBSERVATIONS IN SOUTHWEST NEBRASKA AND FAR NORTHEAST COLORADO...

CITY           SKY/WX    TMP DP  RH WIND       PRES   REMARKS
WRAY           FAIR      49  31  49 NE15      30.01R
HOLYOKE        FAIR      46  32  57 NE16G24   30.00R
IMPERIAL       MOCLDY    46  32  58 NE16      30.01R
OGALLALA       CLEAR     44  31  60 NE16      30.03R
NORTH PLATTE   MOCLDY    40  31  70 N20G26    30.04R WCI  30
MCCOOK         CLOUDY    50  33  52 N16       30.01R
LEXINGTON      PTCLDY    43  32  64 N16       30.04R
SUTHERLAND       N/A     36  29  76 N15         N/A  WCI  26
MEDICINE CREEK   N/A     50  37  61 NE16        N/A
GOTHENBURG       N/A     41  32  69 N7          N/A
CALLAWAY         N/A     39  30  71 N17         N/A  WCI  30
$$

...OBSERVATIONS IN NORTH CENTRAL NEBRASKA...

CITY           SKY/WX    TMP DP  RH WIND       PRES   REMARKS
VALENTINE      CLOUDY    31  25  78 N13       30.11R WCI  21
THEDFORD       CLOUDY    35  29  78 N12G18    30.08R WCI  27
AINSWORTH      CLOUDY    32  27  80 N17G23    30.09R WCI  21
O`NEILL        CLOUDY    33  26  73 N23G30    30.07R WCI  21
ORD            CLOUDY    34  26  72 N16G29    30.05R WCI  24
BROKEN BOW     CLOUDY    35  28  75 N21G29    30.05R WCI  24
BROWNLEE         N/A     32  27  80 E20         N/A  WCI  20
SPRINGVIEW       N/A     32  25  74 NW3G12      N/A
DUNNING          N/A     33  28  85 N12         N/A  WCI  24
BREWSTER         N/A     33  29  86 N16         N/A  WCI  22
ROSE             N/A     34  32  94 SW15        N/A  WCI  24
NEWPORT          N/A     34  29  82 S13         N/A  WCI  25
COMSTOCK         N/A     37  30  75 W20         N/A  WCI  27
CHAMBERS         N/A     33  24  69 N14         N/A  WCI  23
EWING            N/A     35  26  69 N13G22      N/A  WCI  26
$$

...SOME WEATHER OBSERVATIONS FROM AROUND THE REGION...

CITY           SKY/WX    TMP DP  RH WIND       PRES   REMARKS
DENVER         CLOUDY    48  21  34 NE12      30.00R
LARAMIE        MOCLDY    40  20  44 N15       29.96R WCI  32
CHEYENNE       PTCLDY    40  27  59 NE13G22   29.99R WCI  32
SCOTTSBLUFF    PTCLDY    47  31  53 NE13      30.01R
RAPID CITY     MOCLDY    36  25  64 NE15      30.09R WCI  27
PIERRE         CLOUDY    35  24  64 NE9       30.14R WCI  28
WINNER         CLOUDY    33  24  69 N15       30.13R WCI  23
SIOUX FALLS    CLOUDY    30  27  88 N24G30    29.99R WCI  16
OMAHA          CLOUDY    40  31  70 NW25G35   29.93R WCI  29
GRAND ISLAND   CLOUDY    38  27  64 N26       30.04R WCI  26
KANSAS CITY    MOCLDY    59  31  34 S21       29.86S
WICHITA        MOCLDY    62  31  31 SW7       29.87R
HAYS           CLOUDY    54  34  47 NE17      29.99R
LIBERAL        MOCLDY    63  28  27 E9        29.93R
GOODLAND       CLOUDY    49  32  52 NE14      30.02R
$$



USA.gov is the U.S. government's official web portal to all federal, state and local government web resources and services.